Log in  \/ 
x
x

Gillespie Operations

The Plus One Flyers, Inc SEE office is located at 1987 N.Marshall Ave, El Cajon 92020

Your Plus One key will open the lock box where the office key is located. PLEASE BE SURE TO PUT THE KEY BACK IN THE BOX.

We just did a major remodel of the facility and we now have a large meeting/ class room with a large screen TV for presentations. 

Go check it out!

 

Additional info
  • Operations Officer: Dave Eby
  • Phone Number: 619-279-7499
  • E-Mail: seeops@plusoneflyers.org
Comments
  • No comments found

Leave your comments

0 Character restriction
Your text should be more than 10 characters
terms and condition.
Special Instructions

Use your Plus One key to gain access to the real estate lock box.  This key will open the door.  Please remember to return the key to the lock box.

Gillespie Weather

[source: ADDS]
METAR
KSEE 200147Z 28008KT 10SM SKC 23/16 A2991 =
KNKX 200155Z 29006KT 10SM CLR 21/15 A2991 RMK AO2 SLP124 T02110150 $ =
TAF
TAF KNKX 1921/2021 26008KT 9999 SCT015 QNH2989INS BECMG 2006/2008 VRB05KT 9999 OVC010 QNH2990INS BECMG 2018/2020 VRB06KT 9999 SCT015 QNH2990INS T26/1922Z T19/2013Z =
SR / SS: 13:15 / 02:26 UTC ( 2017-08-20)

Gillespie Operations Map